Location: Dötzum
(52.0808°N, 9.8063°E)
Time: 04:58:44
(UTC+00:00)

AQUA - Pass Details

Date: 27 May 2022
Orbit: 701 x 703 km, 98.2° (Epoch: 26 June)

Event Time Altitude Azimuth Distance (km) Brightness Sun altitude
Rises 01:53:18 0° 12° (NNE) 3,105 8.5 -9.2°
Reaches altitude 10° 01:55:34 10° 10° (N) 2,182 7.5 -9.0°
Maximum altitude 02:00:18 64° 290° (WNW) 781 4.0 -8.5°
Drops below altitude 10° 02:04:59 10° 209° (SSW) 2,165 5.7 -8.1°
Enters shadow 02:05:02 10° 209° (SSW) 2,187 5.7 -8.1°
